#timestamp,LO_Frequency,Hit,StdDev 
1629324015.0,286046994.9,N
1629324015.9,286046994.9,N
1629324035.8,286046995.6,N
1629324055.6,286046994.0,N
1629324075.4,286046991.8,N
1629324095.3,286046990.2,N
1629324115.1,286046988.7,N
1629324135.9,286046989.1,N
1629324155.7,286046985.4,N
1629324175.5,286046986.1,N
1629324195.4,286046983.7,N
1629324215.2,286046982.1,N
1629324235.0,286046982.3,N
1629324235.9,286046982.3,N
1629324255.8,286046983.4,N
1629324275.6,286046981.2,N
1629324295.5,286046978.9,N
1629324315.3,286046979.5,N
1629324335.1,286046980.7,N
1629324355.9,286046980.1,N
1629324375.7,286046980.4,N
1629324395.5,286046981.0,N
1629324415.4,286046978.9,N
1629324435.2,286046981.7,N
1629324455.1,286046983.3,N
1629324456.0,286046983.3,N
1629324475.8,286046980.5,Y
1629324495.6,286046991.8,P
1629324515.5,286046992.2,P
1629324535.3,286046992.7,N
1629324555.1,286046993.2,N
1629324575.9,286046994.3,N
1629324595.7,286046994.0,N
1629324615.6,286046997.6,N
1629324635.4,286046995.1,N
1629324655.2,286046998.0,N
1629324675.1,286046996.8,N
1629324676.0,286046996.8,N
1629324695.8,286046997.9,N
1629324715.7,286046995.6,N
1629324735.5,286046998.7,N
1629324755.3,286047001.0,N
1629324775.2,286047000.4,N
1629324795.0,286047000.2,N
1629324795.9,286047000.2,N
1629324815.7,286046997.5,N
1629324835.6,286046994.5,N
1629324855.4,286046995.4,N
1629324875.3,286046993.3,N
1629324895.1,286046994.5,N
1629324896.0,286046994.5,N
1629324915.8,286046993.7,N
1629324935.7,286046994.4,N
1629324955.5,286046996.4,N
1629324975.3,286046991.9,N
1629324995.2,286046994.3,N
1629325015.0,286046990.5,Y
1629325015.9,286046990.5,P
1629325035.8,286046994.9,N
1629325055.6,286046996.2,N
1629325075.4,286046992.8,Y
1629325095.3,286046997.7,P
1629325115.1,286046996.5,N
1629325135.9,286047001.3,N
1629325155.7,286047003.3,N
1629325175.5,286047006.0,N
1629325195.4,286047006.9,N
1629325215.2,286047005.1,N
1629325235.0,286047007.5,N
1629325235.9,286047007.5,N
1629325255.8,286047005.7,N
1629325275.6,286047007.6,N
1629325295.5,286047008.5,N
1629325315.3,286047007.9,N
1629325335.1,286047007.8,N
1629325355.9,286047008.4,N
1629325375.7,286047006.6,N
1629325395.5,286047008.2,N
1629325415.4,286047006.3,N
1629325435.2,286047008.0,N
1629325455.1,286047009.3,N
1629325456.0,286047009.3,N
1629325475.8,286047012.4,N
1629325495.6,286047010.1,N
1629325515.5,286047010.5,N
1629325535.3,286047009.1,N
1629325555.1,286047010.1,N
1629325575.9,286047011.8,N
1629325595.7,286047011.0,N
1629325615.6,286047011.3,N
1629325635.4,286047013.4,Y
1629325655.2,286047009.2,P
1629325675.1,286047004.6,P
1629325676.0,286047004.6,N
1629325695.8,286047004.4,N
1629325715.6,286047003.6,N
1629325735.5,286047006.4,Y
1629325755.3,286047002.8,P
1629325775.2,286047002.5,N
1629325795.9,286047000.3,N
1629325815.7,286047000.3,N
1629325835.6,286047000.1,N
1629325855.4,286047000.1,N
1629325875.3,286047005.6,N
1629325895.1,286047005.2,N
1629325896.0,286047005.2,N
1629325915.8,286047005.5,N
1629325935.7,286047006.4,N
1629325955.5,286047009.6,Y
1629325975.3,286047003.6,P
1629325995.2,286047002.1,P
1629326015.0,286047004.5,P
1629326015.9,286047004.5,Y
1629326035.8,286047016.8,P
1629326055.6,286046997.4,N
1629326075.4,286046996.3,N
1629326095.3,286046996.2,N
1629326115.1,286046992.0,N
1629326135.9,286046992.9,N
1629326155.7,286046992.5,N
1629326175.5,286046992.9,N
1629326195.4,286046992.8,N
1629326215.2,286046992.4,N
1629326235.0,286046993.4,N
1629326235.9,286046993.4,N
1629326255.8,286046994.1,N
1629326275.6,286046994.5,N
1629326295.5,286046992.1,N
1629326315.3,286046993.4,N
1629326335.1,286046993.6,N
1629326355.9,286046990.3,N
1629326375.7,286046990.7,N
1629326395.5,286046994.8,N
1629326415.4,286046994.2,N
1629326435.2,286046990.2,N
1629326455.1,286046992.1,N
1629326456.0,286046992.1,N
1629326475.8,286046992.2,N
1629326495.6,286046995.5,N
1629326515.5,286046995.6,N
1629326535.3,286046995.8,N
1629326555.1,286046995.6,N
1629326575.9,286046997.2,N
1629326595.7,286046997.1,N
1629326615.6,286046997.1,N
1629326635.4,286046999.0,N
1629326655.2,286046999.5,N
1629326675.1,286046999.4,N
1629326676.0,286046999.4,N
1629326695.8,286046998.3,N
1629326715.6,286047000.9,N
1629326735.5,286047001.9,N
1629326755.3,286047003.0,N
1629326775.2,286047008.6,N
1629326795.9,286047009.1,N
1629326815.7,286047004.8,N
1629326835.6,286047003.4,N
1629326855.4,286047002.4,N
1629326875.2,286046998.8,N
1629326895.1,286046999.6,N
1629326896.0,286046999.6,N
1629326915.8,286046997.3,N
1629326935.7,286046996.9,N
1629326955.5,286046996.9,N
1629326975.3,286046997.2,N
1629326995.2,286046997.0,N
1629327015.9,286046995.8,N
1629327035.7,286046994.7,N
1629327055.6,286046993.2,N
1629327075.4,286046990.5,N
1629327095.3,286046992.4,N
1629327115.1,286046992.0,N
1629327116.0,286046992.0,N
1629327135.8,286046995.5,N
1629327155.7,286046995.4,N
1629327175.5,286046997.3,N
1629327195.3,286046997.4,N
1629327215.2,286046999.6,N
1629327235.0,286046995.4,N
1629327235.9,286046995.4,N
1629327255.8,286047002.1,N
1629327275.6,286046998.3,N
1629327295.4,286046999.3,N
1629327315.3,286047001.1,N
1629327335.1,286047001.2,N
1629327355.8,286047001.0,N
1629327375.7,286047002.2,N
1629327395.5,286047000.5,N
1629327415.4,286046999.6,N
1629327435.2,286046999.2,N
1629327455.0,286046998.7,N
1629327455.9,286046998.7,N
1629327475.8,286047004.3,N
1629327495.6,286047003.6,N
1629327515.4,286047001.3,N
1629327535.3,286047007.4,N
1629327555.1,286047004.6,N
1629327575.9,286047003.2,N
1629327595.7,286047001.4,N
